timestamp,wind_dir_avg,wind_spd_max_dir,wind_spd_avg,wind_spd_gust,battery_voltage,lat,long
2022-11-28 00:04:00+00:00,338.0,336.0,4.98,5.88,12.17,47.59359,-54.27349
2022-11-28 00:14:00+00:00,324.0,322.0,4.06,4.57,12.09,47.59359,-54.27349
2022-11-28 00:24:00+00:00,313.0,321.0,4.7,6.02,12.09,47.59359,-54.27349
2022-11-28 00:34:00+00:00,316.0,321.0,4.5,5.29,12.09,47.59359,-54.27349
2022-11-28 00:44:00+00:00,324.0,325.0,3.68,4.3,12.09,47.59359,-54.27349
2022-11-28 00:54:00+00:00,313.0,316.0,3.34,3.93,12.09,47.59359,-54.27349
2022-11-28 01:04:00+00:00,318.0,319.0,3.55,4.13,12.09,47.59359,-54.27349
2022-11-28 01:14:00+00:00,303.0,304.0,3.28,3.65,12.09,47.59359,-54.27349
2022-11-28 01:24:00+00:00,319.0,324.0,4.16,4.75,12.09,47.59359,-54.27349
2022-11-28 01:34:00+00:00,300.0,299.0,3.13,3.47,12.09,47.59359,-54.27349
2022-11-28 01:44:00+00:00,323.0,325.0,1.83,2.15,12.09,47.59359,-54.27349
2022-11-28 01:54:00+00:00,312.0,305.0,1.21,1.58,12.09,47.59359,-54.27349
2022-11-28 02:04:00+00:00,327.0,326.0,2.05,2.37,12.09,47.59359,-54.27349
2022-11-28 02:14:00+00:00,315.0,308.0,2.47,2.82,12.09,47.59359,-54.27349
2022-11-28 02:24:00+00:00,290.0,296.0,2.76,3.49,12.09,47.59359,-54.27349
2022-11-28 02:34:00+00:00,306.0,308.0,3.29,3.64,12.09,47.59359,-54.27349
2022-11-28 02:44:00+00:00,298.0,300.0,4.73,5.49,12.09,47.59359,-54.27349
2022-11-28 02:54:00+00:00,295.0,298.0,4.51,4.91,12.09,47.59359,-54.27349
2022-11-28 03:04:00+00:00,284.0,287.0,4.35,4.8,12.09,47.59359,-54.27349
2022-11-28 03:14:00+00:00,288.0,292.0,3.0,3.44,12.09,47.59359,-54.27349
2022-11-28 03:24:00+00:00,288.0,290.0,3.07,3.35,12.09,47.59359,-54.27349
2022-11-28 03:34:00+00:00,293.0,293.0,2.68,3.12,12.09,47.59359,-54.27349
2022-11-28 03:44:00+00:00,282.0,282.0,2.05,2.56,12.09,47.59359,-54.27349
2022-11-28 03:54:00+00:00,298.0,297.0,2.38,2.91,12.09,47.59359,-54.27349
2022-11-28 04:04:00+00:00,303.0,298.0,2.42,2.99,12.09,47.59359,-54.27349
2022-11-28 04:14:00+00:00,314.0,311.0,2.15,2.42,12.09,47.59359,-54.27349
2022-11-28 04:24:00+00:00,317.0,320.0,1.94,2.19,12.09,47.59359,-54.27349
2022-11-28 04:34:00+00:00,323.0,323.0,1.59,1.88,12.09,47.59359,-54.27349
2022-11-28 04:44:00+00:00,337.0,333.0,1.24,1.6,12.09,47.59359,-54.27349
2022-11-28 04:54:00+00:00,326.0,326.0,1.65,1.94,12.09,47.59359,-54.27349
2022-11-28 05:04:00+00:00,314.0,318.0,0.95,1.19,12.09,47.59359,-54.27349
2022-11-28 05:14:01+00:00,307.0,311.0,0.64,0.78,12.09,47.59359,-54.27349
2022-11-28 05:24:01+00:00,292.0,304.0,1.17,1.59,12.09,47.59359,-54.27349
2022-11-28 05:34:01+00:00,281.0,288.0,1.46,1.93,12.09,47.59359,-54.27349
2022-11-28 05:44:01+00:00,267.0,268.0,3.28,3.82,12.09,47.59359,-54.27349
2022-11-28 05:54:01+00:00,280.0,278.0,3.04,3.92,12.09,47.59359,-54.27349
2022-11-28 06:04:01+00:00,289.0,289.0,3.1,3.91,12.09,47.59359,-54.27349
2022-11-28 06:14:00+00:00,292.0,288.0,3.85,4.41,12.09,47.59359,-54.27349
2022-11-28 06:24:00+00:00,293.0,284.0,3.31,4.59,12.09,47.59359,-54.27349
2022-11-28 06:34:00+00:00,302.0,298.0,3.01,3.97,12.09,47.59359,-54.27349
2022-11-28 06:44:00+00:00,313.0,317.0,4.79,5.62,12.09,47.59359,-54.27349
2022-11-28 06:54:00+00:00,322.0,328.0,3.48,4.11,12.09,47.59359,-54.27349
2022-11-28 07:04:00+00:00,317.0,319.0,2.81,3.34,12.09,47.59359,-54.27349
2022-11-28 07:14:00+00:00,314.0,321.0,3.6,4.2,12.09,47.59359,-54.27349
2022-11-28 07:24:00+00:00,298.0,294.0,3.81,4.19,12.09,47.59359,-54.27349
2022-11-28 07:34:00+00:00,318.0,323.0,3.98,4.5,12.09,47.59359,-54.27349
2022-11-28 07:44:00+00:00,309.0,315.0,3.62,4.2,12.09,47.59359,-54.27349
2022-11-28 07:54:00+00:00,290.0,286.0,4.01,4.76,12.09,47.59359,-54.27349
2022-11-28 08:04:00+00:00,301.0,302.0,5.04,5.5,12.09,47.59359,-54.27349
2022-11-28 08:14:00+00:00,312.0,310.0,5.45,6.27,12.09,47.59359,-54.27349
2022-11-28 08:24:00+00:00,314.0,312.0,5.18,6.28,12.09,47.59359,-54.27349
2022-11-28 08:34:00+00:00,311.0,312.0,4.69,5.31,12.09,47.59359,-54.27349
2022-11-28 08:44:00+00:00,299.0,300.0,4.17,4.64,12.09,47.59359,-54.27349
2022-11-28 08:54:00+00:00,295.0,296.0,3.96,4.3,12.09,47.59359,-54.27349
2022-11-28 09:04:00+00:00,305.0,309.0,3.62,4.28,12.09,47.59359,-54.27349
2022-11-28 09:14:00+00:00,295.0,304.0,3.57,3.94,12.09,47.59359,-54.27349
2022-11-28 09:24:00+00:00,279.0,278.0,4.53,5.91,12.09,47.59359,-54.27349
2022-11-28 09:34:00+00:00,287.0,279.0,3.73,4.63,12.09,47.59359,-54.27349
2022-11-28 09:44:00+00:00,296.0,300.0,4.06,4.63,12.09,47.59359,-54.27349
2022-11-28 09:54:00+00:00,293.0,298.0,3.82,4.28,12.09,47.59359,-54.27349
2022-11-28 10:04:00+00:00,286.0,285.0,4.1,4.79,12.09,47.59359,-54.27349
2022-11-28 10:14:01+00:00,289.0,290.0,3.29,3.76,12.09,47.59359,-54.27349
2022-11-28 10:24:01+00:00,300.0,294.0,2.73,3.51,12.09,47.59359,-54.27349
2022-11-28 10:34:01+00:00,285.0,287.0,3.28,3.69,12.09,47.59359,-54.27349
2022-11-28 10:44:01+00:00,266.0,266.0,2.5,2.93,12.09,47.59359,-54.27349
2022-11-28 10:54:01+00:00,260.0,258.0,2.9,3.23,12.09,47.59359,-54.27349
2022-11-28 11:04:01+00:00,292.0,288.0,3.06,3.74,12.09,47.59359,-54.27349
2022-11-28 11:14:00+00:00,314.0,311.0,1.79,2.06,12.09,47.59359,-54.27349
2022-11-28 11:24:00+00:00,253.0,257.0,1.25,1.47,12.09,47.59359,-54.27349
2022-11-28 11:34:00+00:00,264.0,261.0,2.35,2.74,12.09,47.59359,-54.27349
2022-11-28 11:44:00+00:00,219.0,216.0,2.35,2.63,12.09,47.59359,-54.27349
2022-11-28 11:54:00+00:00,233.0,232.0,3.89,4.4,12.09,47.59359,-54.27349
2022-11-28 12:04:00+00:00,204.0,206.0,3.02,3.38,12.09,47.59359,-54.27349
2022-11-28 13:14:01+00:00,213.0,210.0,6.56,7.36,12.33,47.59359,-54.27349
2022-11-28 13:24:01+00:00,210.0,211.0,5.85,6.21,12.33,47.59359,-54.27349
2022-11-28 13:34:01+00:00,199.0,202.0,5.92,6.43,12.33,47.59359,-54.27349
2022-11-28 13:44:01+00:00,205.0,208.0,5.26,5.97,12.33,47.59359,-54.27349
2022-11-28 13:54:01+00:00,191.0,192.0,4.43,4.93,12.33,47.59359,-54.27349
2022-11-28 14:04:01+00:00,187.0,187.0,4.15,4.21,12.33,47.59359,-54.27349
2022-11-28 14:14:00+00:00,165.0,165.0,3.62,4.21,12.65,47.59359,-54.27349
2022-11-28 14:24:00+00:00,132.0,134.0,3.01,3.59,12.65,47.59359,-54.27349
2022-11-28 14:34:00+00:00,149.0,148.0,2.45,2.89,12.65,47.59359,-54.27349
2022-11-28 14:44:00+00:00,315.0,177.0,0.01,0.0,12.65,47.59359,-54.27349
2022-11-28 14:54:00+00:00,169.0,172.0,3.49,3.6,12.65,47.59359,-54.27349
2022-11-28 15:04:00+00:00,170.0,170.0,5.06,5.49,12.65,47.59359,-54.27349
2022-11-28 15:14:00+00:00,167.0,164.0,5.16,5.9,13.21,47.59359,-54.27349
2022-11-28 15:24:00+00:00,157.0,155.0,4.91,5.47,13.21,47.59359,-54.27349
2022-11-28 15:34:00+00:00,169.0,167.0,5.59,6.31,13.21,47.59359,-54.27349
2022-11-28 15:44:00+00:00,167.0,172.0,4.3,5.37,13.21,47.59359,-54.27349
2022-11-28 15:54:00+00:00,187.0,187.0,7.7,8.26,13.21,47.59359,-54.27349
2022-11-28 16:04:00+00:00,187.0,190.0,5.95,6.6,13.21,47.59359,-54.27349
2022-11-28 16:14:00+00:00,174.0,175.0,5.68,6.42,12.65,47.59359,-54.27349
2022-11-28 16:24:00+00:00,170.0,172.0,5.29,5.81,12.65,47.59359,-54.27349
2022-11-28 16:34:00+00:00,170.0,171.0,4.26,4.65,12.65,47.59359,-54.27349
2022-11-28 16:44:00+00:00,168.0,170.0,4.6,5.2,12.65,47.59359,-54.27349
2022-11-28 16:54:00+00:00,172.0,172.0,4.96,5.26,12.65,47.59359,-54.27349
2022-11-28 17:04:00+00:00,185.0,186.0,6.16,6.36,12.65,47.59359,-54.27349
2022-11-28 17:14:00+00:00,167.0,176.0,6.56,7.83,12.65,47.59359,-54.27349
2022-11-28 17:24:00+00:00,150.0,151.0,5.95,6.93,12.65,47.59359,-54.27349
2022-11-28 17:34:00+00:00,145.0,137.0,7.42,8.72,12.65,47.59359,-54.27349
2022-11-28 17:44:00+00:00,138.0,139.0,6.26,7.62,12.65,47.59359,-54.27349
2022-11-28 17:54:00+00:00,142.0,143.0,5.69,6.42,12.65,47.59359,-54.27349
2022-11-28 18:04:00+00:00,149.0,146.0,5.78,6.99,12.65,47.59359,-54.27349
2022-11-28 18:14:00+00:00,144.0,148.0,5.05,5.75,12.49,47.59359,-54.27349
2022-11-28 18:24:00+00:00,143.0,151.0,4.81,5.48,12.49,47.59359,-54.27349
2022-11-28 18:34:00+00:00,151.0,158.0,4.74,6.23,12.49,47.59359,-54.27349
2022-11-28 18:44:00+00:00,138.0,134.0,3.59,4.58,12.49,47.59359,-54.27349
2022-11-28 18:54:00+00:00,114.0,104.0,2.3,3.98,12.49,47.59359,-54.27349
2022-11-28 19:04:00+00:00,88.0,90.0,2.52,4.27,12.49,47.59359,-54.27349
2022-11-28 19:14:00+00:00,103.0,87.0,3.1,5.99,12.33,47.59359,-54.27349
2022-11-28 19:24:00+00:00,94.0,120.0,3.43,6.18,12.33,47.59359,-54.27349
2022-11-28 19:34:00+00:00,93.0,52.0,2.06,4.04,12.33,47.59359,-54.27349
2022-11-28 19:44:00+00:00,49.0,39.0,2.14,3.25,12.33,47.59359,-54.27349
2022-11-28 19:54:00+00:00,75.0,79.0,2.11,3.03,12.33,47.59359,-54.27349
2022-11-28 20:04:00+00:00,115.0,121.0,2.61,3.73,12.33,47.59359,-54.27349
2022-11-28 20:14:00+00:00,101.0,92.0,3.23,5.47,12.25,47.59359,-54.27349
2022-11-28 20:24:00+00:00,108.0,112.0,2.9,4.41,12.25,47.59359,-54.27349
2022-11-28 20:34:00+00:00,88.0,75.0,1.71,2.43,12.25,47.59359,-54.27349
2022-11-28 20:44:00+00:00,88.0,95.0,1.89,3.03,12.25,47.59359,-54.27349
2022-11-28 20:54:00+00:00,15.0,14.0,1.57,2.63,12.25,47.59359,-54.27349
2022-11-28 21:04:00+00:00,46.0,67.0,2.86,4.91,12.25,47.59359,-54.27349
2022-11-28 21:14:00+00:00,2.0,4.0,2.6,3.01,12.17,47.59359,-54.27349
2022-11-28 21:24:00+00:00,278.0,282.0,4.83,6.77,12.17,47.59359,-54.27349
2022-11-28 21:34:00+00:00,228.0,226.0,7.09,8.19,12.17,47.59359,-54.27349
2022-11-28 21:44:00+00:00,228.0,231.0,9.46,12.33,12.17,47.59359,-54.27349
2022-11-28 21:54:00+00:00,223.0,232.0,9.61,12.53,12.17,47.59359,-54.27349
2022-11-28 22:04:00+00:00,213.0,226.0,7.55,8.78,12.17,47.59359,-54.27349
2022-11-28 22:14:00+00:00,213.0,228.0,9.55,11.64,12.17,47.59359,-54.27349
2022-11-28 22:24:00+00:00,207.0,213.0,10.84,12.87,12.17,47.59359,-54.27349
2022-11-28 22:34:00+00:00,209.0,216.0,8.93,10.81,12.17,47.59359,-54.27349
2022-11-28 22:44:00+00:00,211.0,217.0,9.51,11.33,12.17,47.59359,-54.27349
2022-11-28 22:54:00+00:00,211.0,213.0,8.13,8.97,12.17,47.59359,-54.27349
2022-11-28 23:04:00+00:00,206.0,217.0,10.28,11.94,12.17,47.59359,-54.27349
2022-11-28 23:14:01+00:00,205.0,197.0,10.27,12.36,12.09,47.59359,-54.27349
2022-11-28 23:24:01+00:00,209.0,213.0,9.4,12.41,12.09,47.59359,-54.27349
2022-11-28 23:34:01+00:00,203.0,218.0,9.87,12.17,12.09,47.59359,-54.27349
2022-11-28 23:44:01+00:00,208.0,210.0,11.33,13.35,12.09,47.59359,-54.27349
2022-11-28 23:54:01+00:00,204.0,216.0,9.08,11.01,12.09,47.59359,-54.27349
